Location: Hysolar-Haus
(48.7436°N, 9.0965°E)
Time: 06:48:53
(UTC+00:00)

Vanguard 1 Rocket - All Passes

Search period start: 20 November 2019 00:00
Search period end: 30 November 2019 00:00
Orbit: 651 x 4226 km, 34.3° (Epoch: 19 November)

Date Brightness Start Highest point End Pass type
(mag) Time Alt. Az. Time Alt. Az. Time Alt. Az.
20 Nov - 03:07:19 10° SSW 03:09:17 13° SSE 03:11:21 10° SE visible
20 Nov - 05:29:58 10° SW 05:33:10 17° S 05:37:10 10° SE visible
20 Nov - 07:56:39 10° SSW 07:57:50 10° SSW 07:59:06 10° S daylight
21 Nov - 04:19:48 10° SW 04:22:32 16° S 04:25:41 10° SE visible
21 Nov - 06:44:24 10° SW 06:46:46 12° SSW 06:49:34 10° S daylight
22 Nov - 03:09:44 10° SSW 03:12:00 14° S 03:14:21 10° SE visible
22 Nov - 05:33:29 10° SW 05:35:57 14° S 05:38:51 10° SSE visible
23 Nov - 01:59:52 10° S 02:01:27 12° S 02:02:59 10° SSE night (unlit)
23 Nov - 04:22:54 10° SW 04:25:17 14° S 04:27:57 10° SSE visible
24 Nov - 03:12:22 10° SSW 03:14:45 14° S 03:17:08 10° SSE visible
24 Nov - 05:38:15 10° SSW 05:38:44 10° SSW 05:39:13 10° S visible
25 Nov - 02:01:48 10° SSW 02:04:11 14° S 02:06:25 10° SE night (unlit)
25 Nov - 04:26:20 10° SSW 04:28:03 12° S 04:29:52 10° SSE visible
26 Nov - 00:51:11 10° SSW 00:53:34 13° S 00:55:40 10° SE night (unlit)
26 Nov - 03:15:14 10° SW 03:17:29 14° S 03:19:43 10° SSE visible
26 Nov - 23:40:53 10° S 23:42:47 11° SSE 23:44:29 10° SSE night (unlit)
27 Nov - 02:04:07 10° SW 02:06:56 15° S 02:09:29 10° SE night (unlit)
28 Nov - 00:52:52 10° SSW 00:56:20 16° S 00:59:13 10° SE night (unlit)
28 Nov - 03:18:19 10° SW 03:20:12 12° SSW 03:22:02 10° SSE visible
28 Nov - 23:41:32 10° SSW 23:45:35 15° S 23:48:46 10° SE night (unlit)
29 Nov - 02:06:39 10° SW 02:09:41 15° S 02:12:22 10° SSE night (unlit)
29 Nov - 22:30:25 10° SSW 22:34:35 14° SSE 22:37:55 10° SE night (unlit)
